TimeCST,TemperatureF,Dew PointF,Humidity,Sea Level PressureIn,VisibilityMPH,Wind Direction,Wind SpeedMPH,Gust SpeedMPH,PrecipitationIn,Events,Conditions,WindDirDegrees,DateUTC
12:15 AM,59.0,39.2,48,30.07,10.0,ESE,8.1,-,N/A,,Clear,120,2013-03-09 06:15:00
12:35 AM,57.2,39.2,51,30.07,10.0,SE,8.1,-,N/A,,Clear,130,2013-03-09 06:35:00
12:55 AM,55.4,41.0,58,30.07,10.0,ESE,8.1,-,N/A,,Clear,120,2013-03-09 06:55:00
1:15 AM,55.4,41.0,58,30.07,10.0,ESE,6.9,-,N/A,,Clear,120,2013-03-09 07:15:00
1:35 AM,53.6,41.0,62,30.07,10.0,SE,6.9,-,N/A,,Clear,130,2013-03-09 07:35:00
1:55 AM,53.6,41.0,62,30.07,10.0,SE,6.9,-,N/A,,Clear,130,2013-03-09 07:55:00
2:15 AM,53.6,41.0,62,30.06,10.0,SE,5.8,-,N/A,,Clear,130,2013-03-09 08:15:00
2:35 AM,55.4,42.8,63,30.04,10.0,ESE,5.8,-,N/A,,Clear,110,2013-03-09 08:35:00
2:55 AM,55.4,42.8,63,30.02,10.0,ESE,8.1,-,N/A,,Clear,120,2013-03-09 08:55:00
3:15 AM,55.4,44.6,67,30.01,10.0,ESE,9.2,-,N/A,,Clear,120,2013-03-09 09:15:00
3:35 AM,55.4,44.6,67,30.00,10.0,ESE,6.9,-,N/A,,Scattered Clouds,120,2013-03-09 09:35:00
3:55 AM,55.4,46.4,72,30.00,10.0,ESE,6.9,-,N/A,,Mostly Cloudy,120,2013-03-09 09:55:00
4:15 AM,55.4,46.4,72,29.99,10.0,ESE,6.9,-,N/A,,Scattered Clouds,120,2013-03-09 10:15:00
4:35 AM,55.4,46.4,72,30.00,10.0,SE,8.1,-,N/A,,Clear,130,2013-03-09 10:35:00
4:55 AM,55.4,48.2,77,30.00,10.0,SE,10.4,-,N/A,,Scattered Clouds,130,2013-03-09 10:55:00
5:15 AM,55.4,48.2,77,30.00,10.0,SE,6.9,-,N/A,,Overcast,130,2013-03-09 11:15:00
5:35 AM,55.4,50.0,82,30.01,10.0,SE,6.9,-,N/A,,Overcast,130,2013-03-09 11:35:00
5:55 AM,55.4,50.0,82,30.01,10.0,SE,6.9,-,N/A,,Overcast,140,2013-03-09 11:55:00
6:15 AM,55.4,50.0,82,30.01,10.0,SE,8.1,-,N/A,,Overcast,130,2013-03-09 12:15:00
6:35 AM,55.4,50.0,82,30.01,10.0,ESE,6.9,-,N/A,,Overcast,120,2013-03-09 12:35:00
6:55 AM,55.4,50.0,82,30.01,10.0,ESE,6.9,-,N/A,,Overcast,120,2013-03-09 12:55:00
7:15 AM,55.4,50.0,82,30.01,10.0,ESE,9.2,-,N/A,,Overcast,120,2013-03-09 13:15:00
7:35 AM,55.4,51.8,88,30.01,10.0,SE,9.2,-,N/A,,Overcast,130,2013-03-09 13:35:00
7:55 AM,57.2,51.8,82,30.00,10.0,ESE,10.4,-,N/A,,Overcast,120,2013-03-09 13:55:00
8:15 AM,57.2,51.8,82,30.00,10.0,ESE,11.5,-,N/A,,Overcast,120,2013-03-09 14:15:00
8:35 AM,57.2,51.8,82,29.99,10.0,SE,10.4,-,N/A,,Overcast,130,2013-03-09 14:35:00
8:55 AM,57.2,51.8,82,30.00,10.0,SE,11.5,-,N/A,,Overcast,130,2013-03-09 14:55:00
9:15 AM,59.0,53.6,82,29.99,10.0,SE,11.5,-,N/A,,Overcast,130,2013-03-09 15:15:00
9:35 AM,59.0,53.6,82,29.99,10.0,SE,12.7,-,N/A,,Overcast,130,2013-03-09 15:35:00
9:55 AM,59.0,53.6,82,29.98,10.0,ESE,12.7,17.3,N/A,,Overcast,120,2013-03-09 15:55:00
10:15 AM,60.8,53.6,77,29.97,10.0,ESE,9.2,17.3,N/A,,Overcast,120,2013-03-09 16:15:00
10:35 AM,60.8,53.6,77,29.96,10.0,ESE,15.0,20.7,N/A,,Overcast,120,2013-03-09 16:35:00
10:55 AM,62.6,55.4,77,29.96,10.0,SE,15.0,19.6,N/A,,Overcast,130,2013-03-09 16:55:00
11:15 AM,62.6,55.4,77,29.95,10.0,SE,13.8,23.0,N/A,,Mostly Cloudy,140,2013-03-09 17:15:00
11:35 AM,62.6,55.4,77,29.94,10.0,SE,15.0,24.2,N/A,,Overcast,130,2013-03-09 17:35:00
11:55 AM,62.6,55.4,77,29.93,10.0,SE,12.7,-,N/A,,Overcast,130,2013-03-09 17:55:00
12:15 PM,62.6,55.4,77,29.93,10.0,SE,12.7,18.4,N/A,,Overcast,130,2013-03-09 18:15:00
12:35 PM,64.4,57.2,77,29.92,10.0,SE,11.5,18.4,N/A,,Overcast,140,2013-03-09 18:35:00
12:55 PM,64.4,57.2,77,29.91,10.0,SE,10.4,16.1,N/A,,Overcast,140,2013-03-09 18:55:00
1:15 PM,66.2,59.0,78,29.89,10.0,SE,16.1,-,N/A,,Mostly Cloudy,140,2013-03-09 19:15:00
1:35 PM,64.4,59.0,83,29.88,10.0,SE,13.8,21.9,N/A,,Mostly Cloudy,130,2013-03-09 19:35:00
1:55 PM,64.4,59.0,83,29.86,10.0,SE,12.7,-,N/A,,Mostly Cloudy,140,2013-03-09 19:55:00
2:15 PM,64.4,59.0,83,29.85,10.0,SE,9.2,-,N/A,,Mostly Cloudy,140,2013-03-09 20:15:00
2:35 PM,66.2,59.0,78,29.85,10.0,SE,10.4,-,N/A,,Overcast,130,2013-03-09 20:35:00
2:55 PM,66.2,59.0,78,29.84,10.0,SE,6.9,-,N/A,,Overcast,130,2013-03-09 20:55:00
3:15 PM,68.0,59.0,73,29.83,10.0,ESE,9.2,-,N/A,,Overcast,110,2013-03-09 21:15:00
3:35 PM,68.0,59.0,73,29.83,10.0,ESE,8.1,-,N/A,,Overcast,110,2013-03-09 21:35:00
3:55 PM,68.0,59.0,73,29.82,10.0,ESE,10.4,-,N/A,,Overcast,120,2013-03-09 21:55:00
4:15 PM,69.8,59.0,68,29.82,10.0,SE,13.8,18.4,N/A,,Mostly Cloudy,140,2013-03-09 22:15:00
4:35 PM,69.8,59.0,68,29.80,10.0,ESE,18.4,23.0,N/A,,Scattered Clouds,110,2013-03-09 22:35:00
4:55 PM,69.8,59.0,68,29.77,10.0,SE,17.3,21.9,N/A,,Clear,130,2013-03-09 22:55:00
5:15 PM,69.8,59.0,68,29.76,10.0,SE,18.4,25.3,N/A,,Clear,130,2013-03-09 23:15:00
5:35 PM,69.8,59.0,68,29.75,10.0,SE,16.1,26.5,N/A,,Scattered Clouds,130,2013-03-09 23:35:00
5:55 PM,68.0,59.0,73,29.75,10.0,SE,13.8,21.9,N/A,,Clear,140,2013-03-09 23:55:00
6:15 PM,68.0,59.0,73,29.75,10.0,SE,12.7,21.9,N/A,,Scattered Clouds,130,2013-03-10 00:15:00
6:35 PM,68.0,59.0,73,29.77,10.0,ESE,8.1,-,N/A,,Mostly Cloudy,110,2013-03-10 00:35:00
6:55 PM,66.2,59.0,78,29.78,10.0,East,6.9,-,N/A,,Mostly Cloudy,80,2013-03-10 00:55:00
7:15 PM,64.4,59.0,83,29.79,10.0,ESE,5.8,-,N/A,,Overcast,110,2013-03-10 01:15:00
7:35 PM,66.2,59.0,78,29.80,10.0,ESE,6.9,-,N/A,,Overcast,110,2013-03-10 01:35:00
7:55 PM,64.4,59.0,83,29.80,10.0,ESE,8.1,-,N/A,,Overcast,110,2013-03-10 01:55:00
8:15 PM,66.2,59.0,78,29.80,10.0,ESE,13.8,-,N/A,,Mostly Cloudy,120,2013-03-10 02:15:00
8:35 PM,68.0,59.0,73,29.79,10.0,SE,19.6,23.0,N/A,,Scattered Clouds,140,2013-03-10 02:35:00
8:55 PM,68.0,59.0,73,29.80,10.0,SE,23.0,32.2,N/A,,Scattered Clouds,140,2013-03-10 02:55:00
9:15 PM,68.0,59.0,73,29.80,10.0,SE,15.0,20.7,N/A,,Scattered Clouds,130,2013-03-10 03:15:00
9:35 PM,68.0,59.0,73,29.81,10.0,SE,15.0,20.7,N/A,,Scattered Clouds,140,2013-03-10 03:35:00
9:55 PM,66.2,59.0,78,29.81,10.0,SE,16.1,20.7,N/A,,Mostly Cloudy,140,2013-03-10 03:55:00
10:15 PM,66.2,59.0,78,29.81,10.0,SSE,17.3,-,N/A,,Scattered Clouds,150,2013-03-10 04:15:00
10:35 PM,66.2,59.0,78,29.80,10.0,SE,16.1,-,N/A,,Clear,140,2013-03-10 04:35:00
10:55 PM,66.2,59.0,78,29.79,10.0,SE,18.4,24.2,N/A,,Scattered Clouds,140,2013-03-10 04:55:00
11:15 PM,66.2,59.0,78,29.79,10.0,SE,15.0,24.2,N/A,,Scattered Clouds,140,2013-03-10 05:15:00
11:35 PM,64.4,59.0,83,29.79,10.0,SE,16.1,27.6,N/A,,Scattered Clouds,140,2013-03-10 05:35:00
11:55 PM,64.4,59.0,83,29.77,10.0,SE,15.0,25.3,N/A,,Clear,140,2013-03-10 05:55:00